Tracking 29892 objects as of 21-Nov-2024
HD Live streaming from Space Station
objects crossing your sky now

STARLINK-4184

Track STARLINK-4184 now!
10-day predictions
STARLINK-4184 is classified as:


NORAD ID: 52852
Int'l Code: 2022-062Y
Perigee: 545.7 km
Apogee: 548.0 km
Inclination: 53.2 °
Period: 95.4 minutes
Semi major axis: 6917 km
RCS: Unknown
Launch date: June 17, 2022
Source: United States (US)
Launch site: AIR FORCE EASTERN TEST RANGE (AFETR)
Your satellite tracking list
Your tracking list is empty




NASA's NSSDC Master Catalog

Two Line Element Set (TLE):
1 52852U 22062Y   24325.49787600 -.00000495  00000-0 -13023-4 0  9994
2 52852  53.2187 352.8482 0001668 101.3508 258.7671 15.08841013134332
Source of the keplerian elements: AFSPC